Tracking 30743 objects as of 21-Jun-2025
HD Live streaming from Space Station
objects crossing your sky now

SL-8 R/B

Track SL-8 R/B now!
10-day predictions


NORAD ID: 10521
Int'l Code: 1977-119B
Perigee: 743.1 km
Apogee: 773.8 km
Inclination: 74.0 °
Period: 99.8 minutes
Semi major axis: 7129 km
RCS: 4.5103 m2 (large)
Launch date: December 16, 1977
Source: Commonwealth of Independent States (former USSR) (CIS)
Launch site: PLESETSK MISSILE AND SPACE COMPLEX (PKMTR)

Note: This is a ROCKET BODY
Your satellite tracking list
Your tracking list is empty




NASA's NSSDC Master Catalog

Two Line Element Set (TLE):
1 10521U 77119B   25172.64998105  .00000167  00000-0  58586-4 0  9993
2 10521  74.0263 247.8927 0021560 268.0035  91.8652 14.42185608493792
Source of the keplerian elements: AFSPC